Location: Newark
(48.5667°N, 7.8167°E)
Time: 06:59:24
(UTC+00:00)

JY1SAT - Pass Details

Date: 26 July 2021
Orbit: 568 x 591 km, 97.7° (Epoch: 26 September)

Event Time Altitude Azimuth Distance (km) Brightness Sun altitude
Exits shadow 22:30:44 - 241° (WSW) 2,023 ? -20.7°
Reaches altitude 10° 22:31:22 10° 249° (WSW) 1,911 ? -20.7°
Maximum altitude 22:33:02 12° 273° (W) 1,779 ? -20.8°
Drops below altitude 10° 22:34:43 10° 297° (WNW) 1,922 ? -20.9°
Sets 22:38:13 0° 328° (NNW) 2,835 ? -21.0°
